Weather History for KP69 - March, 2013

Change the Weather History Date:

Friday, March 22, 2013

  Actual Average Record
Temperature  
Mean Temperature 36 °F -  
Max Temperature 39 °F 54 °F 73 °F (2004)
Min Temperature 32 °F 33 °F 27 °F (2014)
Degree Days  
Heating Degree Days 30    
Moisture  
Dew Point 32 °F    
Average Humidity 92    
Maximum Humidity 100    
Minimum Humidity 73    
Precipitation  
Precipitation 0.19 in - - ()
Sea Level Pressure  
Sea Level Pressure 30.22 in    
Wind  
Wind Speed 0 mph (North)    
Max Wind Speed 6 mph    
Max Gust Speed -    
Averages and records for this station are not official NWS values.
T = Trace of Precipitation, MM = Missing Value Source: NWS Daily Summary

Daily Weather History Graph

Daily Weather History Graph

Search for Another Location

Airport or City:

Trip Planner

Search our weather history database for the weather conditions in past years. The results will help you decide how hot, cold, wet, or windy it might be!

Date:

Astronomy

Mar. 22, 2013 Rise Set
Actual Time 7:40 AM MDT 7:58 PM MDT
Civil Twilight 7:10 AM MDT 8:28 PM MDT
Nautical Twilight 6:35 AM MDT 9:03 PM MDT
Astronomical Twilight 5:59 AM MDT 9:39 PM MDT
Moon 3:16 PM MDT (3/22) 4:57 AM MDT (3/22)
Length of Visible Light 13h 17m
Length of Day
12h 17m
Waxing Gibbous, 78% of the Moon is Illuminated
Mar 22
Waxing Gibbous
Mar 27
Full
Apr 2
Last Quarter
Apr 10
New
Apr 18
First Quarter

Hourly Weather History & Observations

Time (MDT) Temp. Windchill Dew Point Humidity Pressure Visibility Wind Dir Wind Speed Gust Speed Precip Events Conditions
12:52 AM 33.1 °F - 32.0 °F 96% 30.14 in - Calm Calm - 0.02 in   Unknown
1:52 AM 32.0 °F - 32.0 °F 100% 30.15 in - Calm Calm - 0.06 in   Unknown
2:52 AM 32.0 °F - 32.0 °F 100% 30.14 in - Calm Calm - 0.05 in   Unknown
3:52 AM 33.1 °F - 32.0 °F 96% 30.14 in - Calm Calm - 0.01 in   Unknown
4:52 AM 32.0 °F - 32.0 °F 100% 30.13 in - Calm Calm - N/A   Unknown
5:52 AM 32.0 °F - 30.9 °F 96% 30.14 in - Calm Calm - N/A   Unknown
6:52 AM 33.1 °F - 32.0 °F 96% 30.16 in - Calm Calm - N/A   Unknown
7:52 AM 32.0 °F - 32.0 °F 100% 30.17 in - Calm Calm - N/A   Unknown
8:52 AM 33.1 °F - 32.0 °F 96% 30.19 in - Calm Calm - N/A   Unknown
9:52 AM 34.0 °F - 32.0 °F 92% 30.19 in - Calm Calm - N/A   Unknown
10:52 AM 35.1 °F - 32.0 °F 89% 30.20 in - Calm Calm - N/A   Unknown
11:52 AM 34.0 °F - 32.0 °F 92% 30.22 in - Calm Calm - 0.02 in   Unknown
12:52 PM 37.9 °F - 30.9 °F 76% 30.21 in - Calm Calm - N/A   Unknown
1:52 PM 37.0 °F - 32.0 °F 82% 30.21 in - Calm Calm - 0.01 in   Unknown
2:52 PM 39.0 °F - 30.9 °F 73% 30.21 in - Calm Calm - N/A   Unknown
3:52 PM 37.0 °F 32.4 °F 33.1 °F 86% 30.22 in - Variable 5.8 mph - N/A   Unknown
4:52 PM 35.1 °F - 30.0 °F 82% 30.24 in - Calm Calm - N/A   Unknown
5:52 PM 35.1 °F 32.2 °F 32.0 °F 89% 30.26 in - Variable 3.5 mph - 0.01 in   Unknown
6:52 PM 34.0 °F 31.0 °F 32.0 °F 92% 30.27 in - Variable 3.5 mph - 0.01 in   Unknown
7:52 PM 33.1 °F - 32.0 °F 96% 30.30 in - Calm Calm - N/A   Unknown
8:52 PM 33.1 °F - 32.0 °F 96% 30.31 in - Calm Calm - N/A   Unknown
9:52 PM 33.1 °F - 32.0 °F 96% 30.33 in - Calm Calm - N/A   Unknown
10:52 PM 32.0 °F - 30.9 °F 96% 30.35 in - Calm Calm - N/A   Unknown
11:52 PM 32.0 °F - 30.9 °F 96% 30.36 in - Calm Calm - N/A   Unknown